Regional Weather Roundup
Issued by NWS

Home | Current Version | Previous Version | Text Only | Print | Product List | Glossary Off
Versions: 1 2 3 4 5 6 7 8 9 10 11 12 13 14 15 16 17 18 19 20 21 22 23 24 25 26 27 28 29 30 31 32 33 34 35 36 37 38 39 40 41 42 43 44 45 46 47 48 49 50

000
ASUS43 KBIS 261410
RWRND
NORTH DAKOTA REGIONAL WEATHER ROUNDUP
NATIONAL WEATHER SERVICE EASTERN NORTH DAKOTA/GRAND FORKS ND
900 AM CDT FRI MAY 26 2017

  NOTE: "FAIR" INDICATES FEW OR NO CLOUDS BELOW 12,000 FEET WITH NO
  SIGNIFICANT WEATHER AND/OR OBSTRUCTIONS TO VISIBILITY.

NDZ001>003-009>011-017-261500-
...NORTHWEST NORTH DAKOTA...

CITY           SKY/WX    TMP DP  RH WIND       PRES   REMARKS
WILLISTON      CLOUDY    53  41  63 W22       29.74R
MINOT          CLOUDY    55  43  63 W13G23    29.66S
MINOT AFB      CLOUDY    54  43  67 W22G29    29.65R
$$

NDZ018>021-031>035-040>046-261500-
...SOUTHWEST NORTH DAKOTA...

CITY           SKY/WX    TMP DP  RH WIND       PRES   REMARKS
BISMARCK       CLOUDY    55  41  59 W16       29.76R
DICKINSON      CLOUDY    49  37  63 W21G29    29.78R
GARRISON         N/A     51  41  68 W20G28    29.71R
HETTINGER      FAIR      51  38  60 NW26G35   29.83R
$$

NDZ004>008-012>016-024-026-027-054-261500-
...NORTHEAST NORTH DAKOTA...

CITY           SKY/WX    TMP DP  RH WIND       PRES   REMARKS
GRAND FORKS    FAIR      62  49  62 W13       29.63R
GRAND FORKS AF FAIR      61  48  63 W10       29.63R
DEVILS LAKE    PTSUNNY   55  46  71 W23       29.66S
$$

NDZ022-023-025-028>030-036>039-047>053-261500-
...SOUTHEAST NORTH DAKOTA...

CITY           SKY/WX    TMP DP  RH WIND       PRES   REMARKS
JAMESTOWN      FAIR      56  46  69 W15G22    29.70R
FARGO          FAIR      61  49  64 W13       29.67R
WAHPETON       FAIR      59  46  63 W10       29.70R
$$



USA.gov is the U.S. government's official web portal to all federal, state and local government web resources and services.